Weather History for Fort Myers Airport, FL

Change the Weather History Date:

Friday, March 8, 2013

  Actual Average Record
Temperature  
Mean Temperature 60 °F -  
Max Temperature 77 °F 78 °F 91 °F (1974)
Min Temperature 44 °F 57 °F 37 °F (2001)
Degree Days  
Heating Degree Days 4    
Growing Degree Days 10 (Base 50)    
Moisture  
Dew Point 43 °F    
Average Humidity 57    
Maximum Humidity 85    
Minimum Humidity 23    
Precipitation  
Precipitation 0.00 in - - ()
Sea Level Pressure  
Sea Level Pressure 30.18 in    
Wind  
Wind Speed 4 mph (NNW)    
Max Wind Speed 8 mph    
Max Gust Speed -    
Visibility 10 miles    
Events      
Averages and records for this station are not official NWS values.
T = Trace of Precipitation, MM = Missing Value Source: NWS Daily Summary

Daily Weather History Graph

Daily Weather History Graph

Search for Another Location

Airport:

Trip Planner

Search our weather history database for the weather conditions in past years. The results will help you decide how hot, cold, wet, or windy it might be!

Date:

Astronomy

Mar. 08, 2013 Rise Set
Actual Time 6:43 AM EST 6:32 PM EST
Civil Twilight 6:20 AM EST 6:55 PM EST
Nautical Twilight 5:53 AM EST 7:22 PM EST
Astronomical Twilight 5:26 AM EST 7:49 PM EST
Moon 4:11 AM EST (3/8) 3:39 PM EST (3/8)
Length of Visible Light 12h 35m
Length of Day
11h 48m
Waning Crescent, 12% of the Moon is Illuminated
Mar 8
Waning Crescent
Mar 11
New
Mar 19
First Quarter
Mar 27
Full
Apr 3
Last Quarter

Hourly Weather History & Observations

Time (EST) Temp. Windchill Dew Point Humidity Pressure Visibility Wind Dir Wind Speed Gust Speed Precip Events Conditions
12:53 AM 50.0 °F - 42.1 °F 74% 30.19 in 10.0 mi North 6.9 mph - N/A   Clear
1:53 AM 48.0 °F - 41.0 °F 77% 30.19 in 10.0 mi North 3.5 mph - N/A   Clear
2:53 AM 46.9 °F - 39.9 °F 77% 30.18 in 10.0 mi North 3.5 mph - N/A   Clear
3:53 AM 46.0 °F 44.8 °F 39.9 °F 79% 30.17 in 10.0 mi North 3.5 mph - N/A   Clear
4:53 AM 46.0 °F 44.8 °F 39.9 °F 79% 30.17 in 10.0 mi NNE 3.5 mph - N/A   Clear
5:53 AM 45.0 °F - 39.9 °F 82% 30.19 in 8.0 mi Calm Calm - N/A   Clear
6:53 AM 44.1 °F - 39.9 °F 85% 30.19 in 6.0 mi Calm Calm - N/A   Clear
7:53 AM 50.0 °F - 43.0 °F 77% 30.21 in 9.0 mi NNE 5.8 mph - N/A   Clear
8:53 AM 57.0 °F - 46.0 °F 67% 30.23 in 10.0 mi NE 4.6 mph - N/A   Clear
9:53 AM 64.0 °F - 45.0 °F 50% 30.22 in 10.0 mi North 8.1 mph - N/A   Clear
10:53 AM 68.0 °F - 42.1 °F 39% 30.22 in 10.0 mi Variable 5.8 mph - N/A   Clear
11:53 AM 71.1 °F - 39.9 °F 32% 30.20 in 10.0 mi Calm Calm - N/A   Clear
12:53 PM 73.0 °F - 37.9 °F 28% 30.17 in 10.0 mi Variable 6.9 mph - N/A   Clear
1:53 PM 75.0 °F - 39.0 °F 27% 30.14 in 10.0 mi Variable 3.5 mph - N/A   Clear
2:53 PM 75.9 °F - 37.0 °F 24% 30.13 in 10.0 mi NW 6.9 mph - N/A   Clear
3:53 PM 77.0 °F - 36.0 °F 23% 30.12 in 10.0 mi NW 6.9 mph - N/A   Clear
4:53 PM 75.0 °F - 44.1 °F 33% 30.12 in 10.0 mi West 6.9 mph - N/A   Clear
5:53 PM 71.1 °F - 43.0 °F 36% 30.13 in 10.0 mi WNW 8.1 mph - N/A   Clear
6:53 PM 66.0 °F - 46.0 °F 48% 30.15 in 10.0 mi WNW 3.5 mph - N/A   Clear
7:53 PM 62.1 °F - 46.9 °F 58% 30.16 in 10.0 mi NW 3.5 mph - N/A   Clear
8:53 PM 60.1 °F - 48.9 °F 67% 30.18 in 10.0 mi Calm Calm - N/A   Clear
9:53 PM 59.0 °F - 48.0 °F 67% 30.19 in 10.0 mi Calm Calm - N/A   Clear
10:53 PM 57.0 °F - 48.0 °F 72% 30.19 in 10.0 mi Calm Calm - N/A   Clear
11:53 PM 55.9 °F - 46.9 °F 72% 30.18 in 10.0 mi Calm Calm - N/A   Clear